Weather History for Tampa Knight Airport, FL

Change the Weather History Date:

Monday, September 23, 2013

  Actual Average (KTPA) Record (KTPA)
Temperature  
Mean Temperature 78 °F 81 °F  
Max Temperature 82 °F 88 °F 93 °F (1933)
Min Temperature 75 °F 74 °F 59 °F (1897)
Degree Days  
Heating Degree Days 0 0  
Month to date heating degree days 0  
Since 1 July heating degree days 0  
Cooling Degree Days 14 16  
Month to date cooling degree days 395  
Year to date cooling degree days 2910  
Growing Degree Days 28 (Base 50)    
Moisture  
Dew Point 74 °F    
Average Humidity 88    
Maximum Humidity 94    
Minimum Humidity 79    
Precipitation  
Precipitation 0.88 in 0.18 in 2.25 in (1965)
Month to date precipitation 5.19  
Year to date precipitation 38.91  
Sea Level Pressure  
Sea Level Pressure 29.91 in    
Wind  
Wind Speed 6 mph (SE)    
Max Wind Speed 20 mph    
Max Gust Speed 26 mph    
Visibility 9 miles    
Events Rain    
T = Trace of Precipitation, MM = Missing Value Source: NWS Daily Summary

Daily Weather History Graph

Daily Weather History Graph

Search for Another Location

Airport:

Trip Planner

Search our weather history database for the weather conditions in past years. The results will help you decide how hot, cold, wet, or windy it might be!

Date:

Astronomy

Sep. 23, 2013 Rise Set
Actual Time 7:18 AM EDT 7:24 PM EDT
Civil Twilight 6:55 AM EDT 7:48 PM EDT
Nautical Twilight 6:28 AM EDT 8:15 PM EDT
Astronomical Twilight 6:00 AM EDT 8:42 PM EDT
Moon 10:20 PM EDT (9/23) 11:13 AM EDT (9/23)
Length of Visible Light 12h 52m
Length of Day
12h 05m
Waning Gibbous, 81% of the Moon is Illuminated
Sep 23
Waning Gibbous
Sep 26
Last Quarter
Oct 4
New
Oct 11
First Quarter
Oct 18
Full

Hourly Weather History & Observations

Time (EDT) Temp. Heat Index Dew Point Humidity Pressure Visibility Wind Dir Wind Speed Gust Speed Precip Events Conditions
12:15 AM 78.8 °F - 73.4 °F 83% 29.86 in 10.0 mi Calm Calm - N/A   Scattered Clouds
12:35 AM 78.8 °F - 73.4 °F 83% 29.86 in 10.0 mi East 3.5 mph - N/A   Mostly Cloudy
12:55 AM 77.0 °F - 73.4 °F 89% 29.86 in 10.0 mi East 3.5 mph - N/A   Scattered Clouds
1:15 AM 77.0 °F - 73.4 °F 89% 29.86 in 10.0 mi East 4.6 mph - N/A   Scattered Clouds
1:35 AM 77.0 °F - 73.4 °F 89% 29.86 in 10.0 mi East 3.5 mph - N/A   Scattered Clouds
1:55 AM 77.0 °F - 73.4 °F 89% 29.86 in 10.0 mi East 4.6 mph - N/A   Clear
2:15 AM 77.0 °F - 73.4 °F 89% 29.86 in 10.0 mi ESE 4.6 mph - N/A   Clear
2:35 AM 77.0 °F - 73.4 °F 89% 29.86 in 10.0 mi SE 6.9 mph - N/A   Clear
2:55 AM 77.0 °F - 73.4 °F 89% 29.86 in 10.0 mi SE 8.1 mph - N/A   Scattered Clouds
3:15 AM 77.0 °F - 73.4 °F 89% 29.85 in 10.0 mi ESE 6.9 mph - N/A   Clear
3:35 AM 77.0 °F - 73.4 °F 89% 29.84 in 10.0 mi SE 6.9 mph - N/A   Clear
3:55 AM 77.0 °F - 73.4 °F 89% 29.84 in 10.0 mi ESE 5.8 mph - N/A   Clear
4:15 AM 77.0 °F - 73.4 °F 89% 29.85 in 10.0 mi ESE 5.8 mph - N/A   Clear
4:35 AM 77.0 °F - 73.4 °F 89% 29.86 in 10.0 mi SE 5.8 mph - N/A   Clear
4:55 AM 77.0 °F - 73.4 °F 89% 29.87 in 10.0 mi ESE 4.6 mph - N/A   Clear
5:15 AM 77.0 °F - 73.4 °F 89% 29.87 in 10.0 mi ESE 4.6 mph - N/A   Scattered Clouds
5:35 AM 77.0 °F - 73.4 °F 89% 29.87 in 10.0 mi SE 6.9 mph - N/A   Scattered Clouds
5:55 AM 77.0 °F - 73.4 °F 89% 29.87 in 10.0 mi SE 5.8 mph - N/A   Clear
6:15 AM 77.0 °F - 73.4 °F 89% 29.87 in 10.0 mi ESE 5.8 mph - N/A   Clear
6:35 AM 77.0 °F - 73.4 °F 89% 29.87 in 10.0 mi ESE 6.9 mph - N/A   Clear
6:55 AM 77.0 °F - 71.6 °F 83% 29.88 in 10.0 mi East 5.8 mph - N/A   Clear
7:15 AM 75.2 °F - 71.6 °F 89% 29.89 in 10.0 mi East 5.8 mph - N/A   Scattered Clouds
7:35 AM 77.0 °F - 73.4 °F 89% 29.89 in 10.0 mi East 6.9 mph - N/A   Scattered Clouds
7:55 AM 77.0 °F - 73.4 °F 89% 29.88 in 10.0 mi ESE 6.9 mph - N/A   Scattered Clouds
8:15 AM 77.0 °F - 73.4 °F 89% 29.89 in 10.0 mi ESE 5.8 mph - N/A   Scattered Clouds
8:35 AM 77.0 °F - 73.4 °F 89% 29.90 in 10.0 mi ESE 8.1 mph - N/A   Clear
8:55 AM 78.8 °F - 73.4 °F 83% 29.91 in 10.0 mi ESE 6.9 mph - N/A   Clear
9:15 AM 80.6 °F 85.4 °F 73.4 °F 79% 29.92 in 10.0 mi SE 6.9 mph - N/A   Clear
9:35 AM 80.6 °F 85.4 °F 73.4 °F 79% 29.91 in 10.0 mi ESE 6.9 mph - N/A   Scattered Clouds
9:55 AM 82.4 °F 89.5 °F 75.2 °F 79% 29.92 in 10.0 mi SE 10.4 mph - N/A   Scattered Clouds
10:15 AM 80.6 °F 86.2 °F 75.2 °F 84% 29.92 in 10.0 mi SE 10.4 mph - N/A   Mostly Cloudy
10:35 AM 80.6 °F 86.2 °F 75.2 °F 84% 29.92 in 7.0 mi SE 11.5 mph - 0.01 in Rain Light Rain
10:55 AM 78.8 °F - 75.2 °F 89% 29.91 in 7.0 mi ESE 9.2 mph - 0.01 in   Overcast
11:15 AM 80.6 °F 87.1 °F 77.0 °F 89% 29.93 in 10.0 mi SSE 9.2 mph - N/A   Overcast
11:35 AM 80.6 °F 86.2 °F 75.2 °F 84% 29.93 in 10.0 mi SSE 10.4 mph - N/A   Overcast
11:55 AM 78.8 °F - 77.0 °F 94% 29.94 in 4.0 mi South 9.2 mph - 0.05 in Rain Rain
12:15 PM 78.8 °F - 75.2 °F 89% 29.96 in 3.0 mi SW 19.6 mph 26.5 mph 0.11 in Rain Heavy Rain
12:35 PM 75.2 °F - 73.4 °F 94% 29.96 in 3.0 mi SW 6.9 mph - 0.30 in Rain Heavy Rain
12:55 PM 75.2 °F - 73.4 °F 94% 29.95 in 2.5 mi South 8.1 mph - 0.44 in Rain Rain
1:15 PM 75.2 °F - 73.4 °F 94% 29.94 in 5.0 mi South 6.9 mph - 0.02 in Rain Light Rain
1:35 PM 75.2 °F - 73.4 °F 94% 29.94 in 7.0 mi South 4.6 mph - 0.05 in Rain Light Rain
2:15 PM 77.0 °F - 73.4 °F 89% 29.92 in 10.0 mi ESE 3.5 mph - N/A   Mostly Cloudy
2:35 PM 78.8 °F - 73.4 °F 83% 29.92 in 10.0 mi ESE 3.5 mph - N/A   Mostly Cloudy
2:55 PM 78.8 °F - 73.4 °F 83% 29.91 in 10.0 mi ESE 3.5 mph - N/A   Mostly Cloudy
3:15 PM 78.8 °F - 73.4 °F 83% 29.92 in 10.0 mi South 4.6 mph - N/A Rain Rain
3:35 PM 78.8 °F - 75.2 °F 89% 29.91 in 5.0 mi SE 5.8 mph - 0.07 in Rain Rain
3:55 PM 77.0 °F - 73.4 °F 89% 29.91 in 7.0 mi ESE 4.6 mph - 0.08 in Rain Rain
4:15 PM 77.0 °F - 75.2 °F 94% 29.91 in 10.0 mi ESE 6.9 mph - 0.02 in   Overcast
4:35 PM 78.8 °F - 75.2 °F 89% 29.91 in 10.0 mi ESE 5.8 mph - 0.02 in   Overcast
4:55 PM 78.8 °F - 75.2 °F 89% 29.92 in 10.0 mi ESE 5.8 mph - 0.02 in   Overcast
5:15 PM 78.8 °F - 75.2 °F 89% 29.92 in 10.0 mi SSE 8.1 mph - N/A   Overcast
5:35 PM 78.8 °F - 73.4 °F 83% 29.92 in 10.0 mi ESE 6.9 mph - N/A   Overcast
5:55 PM 77.0 °F - 73.4 °F 89% 29.93 in 10.0 mi ESE 9.2 mph - N/A Rain Light Rain
6:15 PM 77.0 °F - 73.4 °F 89% 29.93 in 3.0 mi East 8.1 mph - 0.05 in Rain Rain
6:35 PM 77.0 °F - 73.4 °F 89% 29.94 in 5.0 mi SE 6.9 mph - 0.11 in Rain Heavy Rain
6:55 PM 75.2 °F - 73.4 °F 94% 29.93 in 4.0 mi ESE 9.2 mph - 0.17 in Rain Heavy Rain
7:15 PM 77.0 °F - 73.4 °F 89% 29.93 in 7.0 mi ESE 6.9 mph - 0.04 in Rain Light Rain
7:35 PM 77.0 °F - 73.4 °F 89% 29.93 in 10.0 mi ESE 8.1 mph - 0.04 in Rain Light Rain
7:55 PM 77.0 °F - 73.4 °F 89% 29.92 in 10.0 mi SE 11.5 mph - 0.05 in Rain Light Rain
8:15 PM 77.0 °F - 73.4 °F 89% 29.92 in 10.0 mi SE 11.5 mph 17.3 mph N/A   Light Drizzle
8:35 PM 77.0 °F - 73.4 °F 89% 29.93 in 10.0 mi SSE 6.9 mph 16.1 mph N/A   Light Drizzle
8:55 PM 77.0 °F - 73.4 °F 89% 29.94 in 10.0 mi SE 9.2 mph - N/A   Light Drizzle
9:15 PM 77.0 °F - 73.4 °F 89% 29.95 in 10.0 mi SSE 10.4 mph - N/A   Mostly Cloudy
9:35 PM 77.0 °F - 73.4 °F 89% 29.96 in 10.0 mi SSE 10.4 mph - N/A   Overcast
9:55 PM 77.0 °F - 73.4 °F 89% 29.95 in 10.0 mi SSE 10.4 mph - N/A Rain Rain
10:15 PM 77.0 °F - 73.4 °F 89% 29.96 in 10.0 mi SSE 11.5 mph - 0.01 in   Mostly Cloudy
10:35 PM 77.0 °F - 73.4 °F 89% 29.96 in 10.0 mi SSE 13.8 mph - 0.01 in   Scattered Clouds
10:55 PM 77.0 °F - 73.4 °F 89% 29.96 in 10.0 mi SSE 16.1 mph - 0.01 in   Scattered Clouds
11:15 PM 77.0 °F - 73.4 °F 89% 29.97 in 10.0 mi SSE 10.4 mph - N/A   Scattered Clouds
11:35 PM 77.0 °F - 73.4 °F 89% 29.97 in 10.0 mi SSE 9.2 mph - N/A   Mostly Cloudy
11:55 PM 77.0 °F - 73.4 °F 89% 29.96 in 10.0 mi SE 10.4 mph - N/A   Overcast